Zurück zum Katalog

STARLINK-38050

AktivKommunikationSSO
NORAD 69981·PAYLOAD·🇺🇸 United States

Gestartet Jul 11, 2026 von Vandenberg Space Force Base

Loading…

Nächste Überflüge (nächste 24 Stunden)

TLE

AktuellSource: CelesTrak SupGP

Epoche: Sep 14, 2026, 23:08 UTC

1 69981C 26159G   26257.96437500 -.02560000  00000+0 -29712-1 0  2575
2 69981  97.2852  99.7189 0002092  98.7751 112.4968 15.63099287    13

Verfolge STARLINK-38050 in Echtzeit mit AllMySat

Download on the App Store